Location: Northam
(31.6525°S, 116.6655°E)
Time: 17:25:45
(UTC+08:00)

Tianhe-1 - Visible Passes

Search period start: 15 May 2021 00:00
Search period end: 25 May 2021 00:00
Orbit: 359 x 385 km, 41.5° (Epoch: 14 May)

Date Brightness Start Highest point End Pass type
(mag) Time Alt. Az. Time Alt. Az. Time Alt. Az.
16 May 4.6 06:00:45 10° NNE 06:01:14 10° NE 06:01:43 10° NE visible
18 May 3.8 05:28:08 10° N 05:30:23 18° NE 05:32:38 10° E visible
19 May 1.2 06:00:00 10° NW 06:03:07 75° NNE 06:06:14 10° ESE visible
20 May 3.1 05:00:18 28° ENE 05:00:18 28° ENE 05:02:24 10° E visible
21 May 1.0 05:32:22 62° SSW 05:32:22 62° SSW 05:35:30 10° SE visible
22 May 2.5 06:04:12 18° SW 06:05:27 24° SSW 06:08:05 10° SE visible
23 May 3.7 05:03:55 15° SE 05:03:55 15° SE 05:04:39 10° SE visible
24 May 3.1 05:35:28 18° S 05:35:28 18° S 05:37:11 10° SE visible
